KUIPER-00526

导读

KUIPER-00526(NORAD 69764)是美国亚马逊低轨卫星星座(原柯伊伯计划Project Kuiper)的组网通信卫星,属于该全球低轨互联网星座部署批次卫星,采用Ka频段通信、星间激光链路技术,运行于约590-630公里高度的近地轨道,为全球偏远及网络不足区域提供高速低延迟宽带接入,可对接AWS云服务支持政企、物联网等场景,是亚马逊太空通信基础设施组成部分,目前处于在轨部署阶段。

基本信息
目录编号:
69764
目录名称:
KUIPER-00526
国际标识:
2026-151B
轨道中心:
EARTH
卫星名称:
KUIPER-00526
卫星全名:
KUIPER-00526
卫星状态:
在轨 (已飞行72 天)
发射日期:
2026-07-02 UTC
国别 :
美国 (US)
星等 :
--
该卫星已列入 空间交会检测服务 Space Conjunction Data Service (SCDS) ,当前飞行风险评估等级: 无高风险
轨道信息
数据来源 国际轨道数据 AOE轨道数据
星历时间 2026-09-12T02:10:59+0800
10小时前
查看轨道信息
2026-09-10T23:00:00+0800
1天前
查看轨道信息
半长轴 7007.682km 7007.708km
偏心率 0.0000529 0.0000733
轨道倾角 51.899° 51.897°
近地点辐角 69.525° 76.216°
升交点赤经 272.927° 277.938°
平近点角 290.577° 5.896°
近地点 629.174km 629.057km
远地点 629.916km 630.085km
周期 97.302分钟 97.302分钟
每日圈数 14.799301 14.799219
详细信息
使用方式:
暂无
2D轨道图
3D轨道图
轨道高度分析图
轨道倾角分析图
轨道综合分析图
查看轨道综合分析图
交会数据列表
事件ID 空间交会对象 最接近时刻(TCA) 交会距离 交会风险概率(CRP) 交会风险指数(CRI) 操作
CDM_260913-111603-062806-976421
2026-09-13T
11:16:19+0000
2.436 km
极远距离
1.284831E-6 低风险 0.37
CDM_260914-091403-817406-976421
2026-09-14T
09:14:43+0000
2.557 km
极远距离
1.053435E-6 低风险 0.35
CDM_260913-055705-439506-976424
2026-09-13T
05:57:44+0000
2.622 km
极远距离
1.002728E-6 低风险 0.35
与全量物体交会距离演化趋势
与全量物体交会风险概率演化趋势